Date,TemperatureHighF,TemperatureAvgF,TemperatureLowF,DewpointHighF,DewpointAvgF,DewpointLowF,HumidityHigh,HumidityAvg,HumidityLow,PressureMaxIn,PressureMinIn,WindSpeedMaxMPH,WindSpeedAvgMPH,GustSpeedMaxMPH,PrecipitationSumIn
2013-2-1,63,48,33,37,32,27,83,56,31,30.27,30.18,1,0,0,0.00
2013-2-2,60,48,38,40,34,30,82,60,39,30.26,30.18,3,0,0,0.02
2013-2-3,54,45,39,41,37,32,94,75,52,30.18,30.03,4,0,0,0.06
2013-2-4,61,46,35,34,28,21,81,54,25,30.14,30.04,1,0,0,0.00
2013-2-5,59,47,34,38,29,24,71,51,29,30.07,29.94,2,0,0,0.00
2013-2-6,58,44,32,30,26,13,89,52,31,30.10,29.91,4,0,0,0.00
2013-2-7,53,42,31,39,26,12,97,58,27,30.11,29.87,14,4,0,0.00
2013-2-8,33,28,24,32,27,21,97,97,95,29.92,29.79,11,3,0,0.77
2013-2-9,40,28,19,32,25,18,96,88,69,30.14,29.92,6,1,0,0.01
2013-2-10,37,29,21,30,26,19,95,86,68,30.14,30.05,4,0,0,0.02
2013-2-11,39,30,22,27,15,4,94,58,27,30.31,30.11,7,1,0,0.03
2013-2-12,47,35,24,16,13,5,57,42,28,30.41,30.31,3,0,0,0.00
2013-2-13,56,40,28,22,17,12,54,41,24,30.34,30.22,1,0,0,0.00
2013-2-14,57,44,34,26,23,20,63,46,29,30.27,30.16,1,0,0,0.00
2013-2-15,61,46,34,23,19,15,50,36,18,30.30,30.21,6,1,0,0.00
2013-2-16,65,49,30,25,17,7,53,32,11,30.30,30.07,2,0,0,0.00
2013-2-17,58,46,33,27,21,13,69,40,18,30.04,29.89,8,1,0,0.00
2013-2-18,54,44,31,34,25,19,80,50,26,30.00,29.87,5,1,0,0.00
2013-2-19,40,32,29,32,30,19,99,94,43,29.87,29.63,12,2,0,0.72
2013-2-20,33,28,21,33,27,20,100,98,95,30.04,29.62,4,0,0,0.72
2013-2-21,37,29,24,35,26,17,99,87,62,30.18,30.03,4,0,0,0.00
2013-2-22,51,35,24,28,22,16,90,64,25,30.29,30.18,1,0,0,0.00
2013-2-23,61,40,29,29,26,13,85,59,18,30.21,29.90,5,1,0,0.16
2013-2-24,42,33,28,13,6,2,44,32,19,30.29,30.00,8,2,0,0.00
2013-2-25,54,39,25,20,12,4,59,37,17,30.31,30.11,3,0,0,0.00
2013-2-26,52,39,28,23,15,9,68,40,23,30.22,30.06,2,0,0,0.00
2013-2-27,50,39,29,14,9,4,42,29,16,30.39,30.22,3,0,0,0.00
2013-2-28,59,44,32,16,11,5,34,26,16,30.42,30.36,5,1,0,0.00